Weather Roundup
Issued by NWS

Home | Current Version | Previous Version | Graphics & Text | Print | Product List | Glossary Off
Versions: 1 2 3 4 5 6 7 8 9 10 11 12 13 14 15 16 17 18 19 20 21 22 23 24 25 26 27 28 29 30 31 32 33 34 35 36 37 38 39 40 41 42 43 44 45 46 47 48 49 50

000
NZUS93 KARX 300910
HRRWXR

CURRENT HOURLY OBSERVATIONS ACROSS
MUCH OF THE UPPER MISSISSIPPI VALLEY
NATIONAL WEATHER SERVICE LA CROSSE WI
400 AM CDT SAT APR 30 2016


...SOUTHEAST MINNESOTA...


CITY           SKY/WX    TMP DP  RH WIND       PRES   REMARKS
ROCHESTER      CLOUDY    41  38  89 NE8       30.07R
ROCHESTER/MAYO FAIR      45  38  77 NE6       30.07R
WINONA         CLOUDY    39  37  93 CALM      30.09R
AUSTIN         CLOUDY    43  37  81 NE7       30.03S
ALBERT LEA     CLOUDY    43  39  87 NE9       30.03F
DODGE CENTER   CLOUDY    39  37  93 NE9       30.06S WCI  33
PRESTON        CLOUDY    41  37  83 NE6       30.06R
OWATONNA       CLOUDY    43  37  81 NE8       30.06F
FARIBAULT      CLOUDY    41  37  87 N5        30.08F
$$

...ELSEWHERE IN MINNESOTA...


CITY           SKY/WX    TMP DP  RH WIND       PRES   REMARKS
MINNEAPOLIS    CLOUDY    44  32  62 NE7       30.11R
INTNL FALLS    CLEAR     29  27  92 NE3       30.27R
DULUTH         CLEAR     36  28  73 E9        30.22R WCI  29
RED WING       CLOUDY    43  36  75 S3        30.09S
REDWOOD FALLS  CLOUDY    43  38  82 NE5       30.06F
MANKATO        CLOUDY    45  37  76 NE12      30.06F
WORTHINGTON    CLOUDY    41  38  89 NE15      29.99F
FAIRMONT       CLOUDY    43  32  65 NE12      30.01F
$$

...SOUTHWEST WISCONSIN...


CITY           SKY/WX    TMP DP  RH WIND       PRES   REMARKS
LA CROSSE      CLOUDY    41  37  86 S3        30.09F
PRAIRIE DU CHI CLOUDY    43  36  77 E8        30.06R
BOSCOBEL       CLOUDY    44  38  79 E5        30.08F
LONE ROCK      CLOUDY    43  39  86 E7        30.10R
PLATTEVILLE    CLOUDY    41  39  93 NE9       30.04S
FORT MC COY    CLOUDY    32  32 100 CALM      30.10F
CAMP DOUGLAS   PTCLDY    35  35 100 NE1       30.11S
MAUSTON-NEW LI PTSUNNY   36  34  94 CALM      30.09
VIROQUA        FAIR      40  36  86 E6        30.07R
WIS DELLS      CLOUDY    41  34  74 E6        30.10R
$$

...ELSEWHERE IN WISCONSIN...


CITY           SKY/WX    TMP DP  RH WIND       PRES   REMARKS
MILWAUKEE      CLOUDY    41  35  79 NE6       30.09F
MADISON        CLOUDY    43  34  70 E8        30.10R
GREEN BAY      MOCLDY    42  37  82 NE10      30.14F
EAU CLAIRE     CLOUDY    39  34  82 E6        30.12R WCI  35
BLACK RVR FLS  FAIR      34  34 100 NE6       30.11F WCI  28
MEDFORD        CLOUDY    35  32  88 E5        30.12F WCI  31
WAUSAU         CLOUDY    40  28  62 SE3       30.12F
WIS RAPIDS     CLOUDY    39  31  72 CALM      30.13F
MARSHFIELD     CLOUDY    39  31  72 E7        30.11F WCI  34
RICE LAKE      CLOUDY    40  32  71 N9        30.14S WCI  34
$$

...NORTHEAST IOWA...


CITY           SKY/WX    TMP DP  RH WIND       PRES   REMARKS
WATERLOO       CLOUDY    44  40  85 E12       29.99F
DUBUQUE        CLOUDY    43  39  86 NE8       30.02F
DECORAH          N/A     43  39  87 E8        30.03R
MASON CITY     CLOUDY    44  40  85 NE12      30.01F
CHARLES CITY   CLOUDY    45  43  93 E9        30.01S
OELWEIN        MIX PCPN  43  43 100 E12       30.01F
$$

...ELSEWHERE IN IOWA...


CITY           SKY/WX    TMP DP  RH WIND       PRES   REMARKS
DES MOINES     LGT RAIN  46  41  82 E18G24    29.89F
IOWA CITY      LGT RAIN  46  42  86 E9        29.98F
FORT DODGE     CLOUDY    45  37  76 E16       29.94F
MARSHALLTOWN   LGT RAIN  45  40  82 E22       29.93F
CEDAR RAPIDS   LGT RAIN  45  42  89 E17       29.97S
$$

...NORTHERN ILLINOIS...


CITY           SKY/WX    TMP DP  RH WIND       PRES   REMARKS
CHICAGO-OHARE  CLOUDY    44  40  85 NE7       30.07S
CHICAGO-MIDWAY CLOUDY    46  40  79 NE8       30.06S
MOLINE         CLOUDY    46  41  82 E15       29.99S
ROCKFORD       CLOUDY    44  38  79 NE10      30.08S
PEORIA         LGT RAIN  47  43  86 E15       29.96F FOG
$$

NOTE: "FAIR" INDICATES FEW OR NO CLOUDS BELOW 12,000 FEET WITH NO
SIGNIFICANT WEATHER AND/OR OBSTRUCTIONS TO VISIBILITY. WIND
SPEEDS ARE IN MILES-PER-HOUR.




USA.gov is the U.S. government's official web portal to all federal, state and local government web resources and services.